C/2018 U1 ( Lemmon )

Japanese version
Home page
Updated on January 23, 2021

---------------------------------------------------------------------

* Profile

Discovery Date October 27, 2018
Magnitude 20.0 mag
Discoverer R. A. Kowalski (Mount Lemmon Survey)

* Pictures

* Orbital Elements

Epoch 2021 Nov. 2.0 TT = JDT 2459520.5
T 2021 Nov. 3.07949 TT                                  Rudenko
q   4.9929348            (2000.0)            P               Q
z  -0.0002761      Peri.  180.46441     -0.25316515     -0.30190248
 +/-0.0000008      Node    75.48048     -0.88450412     +0.45706715
e   1.0013783      Incl.  108.29877     -0.39186715     -0.83662687
From 1496 observations 2018 Oct. 27-2020 Oct. 17, mean residual 0".4.

* Finding Charts

* Magnitudes Graph

        m1 = 2.5 + 5 log d + 12.0 log r

---------------------------------------------------------------------

The orbital elements are published on M.P.E.C. 2020-U96.
The charts are made with StellaNavigator Ver.10 (AstroArts).
The magnitudes graphs are made with Comet for Windows.

---------------------------------------------------------------------

Copyright(C) Seiichi Yoshida (comet@aerith.net). All rights reserved.